Date String (YYYY-MM-DD hh:mm:ss) UTC,Instrument flags,Ambient pressure (hPa),Sample flow (lpm),Bypass flow (lpm),Sample temperature (°C),Ambient temperature (°C),ASC tube jacket temperature (°C),LED temperature (°C),Box temperature (°C),Sample RH (%),Span deviation,Mass concentration (μg/m³),Mass concentration (μg/m³),Mass concentration (μg/m³)
DateTimeUTC,F1_M11,P_M11,Q1_M11,Q2_M11,T1_M11,T2_M11,T3_M11,T4_M11,T5_M11,U1_M11,ZSPAN_M11,X0_M11,X2_M11,X1_M11
2021-12-22 16:00:00,,0822.7,4.99,0.00,24.4,23.8,00.0,33.2,26.3,05.1,0000.0,0001.91,0000.61,0000.28
2021-12-22 16:01:00,,0822.7,5.00,0.00,24.5,23.8,00.0,33.2,26.3,05.1,0000.0,0001.99,0000.61,0000.27
2021-12-22 16:02:00,,0822.7,5.00,0.00,24.5,23.8,00.0,33.3,26.4,05.1,0000.0,0002.03,0000.62,0000.27
2021-12-22 16:03:00,,0822.7,4.99,0.00,24.5,23.8,00.0,33.3,26.4,05.1,0000.0,0002.13,0000.63,0000.27
2021-12-22 16:04:00,,0822.6,5.00,0.00,24.5,23.8,00.0,33.3,26.4,05.1,0000.0,0002.07,0000.62,0000.27
2021-12-22 16:05:00,,0822.7,5.00,0.00,24.6,23.9,00.0,33.3,26.4,05.1,0000.0,0001.56,0000.55,0000.27
2021-12-22 16:06:00,,0822.7,5.00,0.00,24.6,23.9,00.0,33.4,26.4,05.1,0000.0,0001.29,0000.49,0000.27
2021-12-22 16:07:00,,0822.6,5.00,0.00,24.6,23.9,00.0,33.4,26.5,05.1,0000.0,0001.17,0000.47,0000.27
2021-12-22 16:08:00,,0822.7,4.99,0.00,24.6,23.9,00.0,33.4,26.5,05.1,0000.0,0001.06,0000.43,0000.27
2021-12-22 16:09:00,,0822.7,5.00,0.00,24.7,24.0,00.0,33.4,26.6,05.1,0000.0,0001.04,0000.42,0000.26
2021-12-22 16:10:00,,0822.7,5.00,0.00,24.7,24.0,00.0,33.5,26.6,05.0,0000.0,0001.03,0000.42,0000.26
2021-12-22 16:11:00,,0822.7,4.99,0.00,24.7,24.0,00.0,33.5,26.6,05.1,0000.0,0000.94,0000.40,0000.26
2021-12-22 16:12:00,,0822.7,5.01,0.00,24.7,24.1,00.0,33.5,26.6,05.0,0000.0,0000.75,0000.35,0000.25
2021-12-22 16:13:00,,0822.8,4.99,0.00,24.8,24.1,00.0,33.5,26.7,05.0,0000.0,0000.68,0000.33,0000.25
2021-12-22 16:14:00,,0822.8,5.01,0.00,24.8,24.1,00.0,33.6,26.7,05.0,0000.0,0000.58,0000.32,0000.25
2021-12-22 16:15:00,,0822.7,5.00,0.00,24.8,24.2,00.0,33.6,26.7,05.0,0000.0,0000.45,0000.30,0000.24
2021-12-22 16:16:00,,0822.7,4.99,0.00,24.8,24.2,00.0,33.6,26.7,04.9,0000.0,0000.44,0000.30,0000.24
2021-12-22 16:17:00,,0822.6,5.00,0.00,24.9,24.2,00.0,33.6,26.8,04.8,0000.0,0000.44,0000.29,0000.23
2021-12-22 16:18:00,,0822.6,5.01,0.00,24.9,24.2,00.0,33.6,26.8,04.7,0000.0,0000.53,0000.29,0000.23
2021-12-22 16:19:00,,0822.6,5.01,0.00,24.9,24.3,00.0,33.7,26.8,04.7,0000.0,0000.68,0000.29,0000.22
2021-12-22 16:20:00,,0822.6,4.98,0.00,25.0,24.3,00.0,33.7,26.8,04.7,0000.0,0000.72,0000.28,0000.22
2021-12-22 16:21:00,,0822.6,5.02,0.00,25.0,24.3,00.0,33.7,26.9,04.5,0000.0,0000.69,0000.27,0000.23
2021-12-22 16:22:00,,0822.5,4.98,0.00,25.0,24.3,00.0,33.8,26.9,04.4,0000.0,0000.70,0000.27,0000.23
2021-12-22 16:23:00,,0822.4,5.01,0.00,25.0,24.3,00.0,33.8,26.9,04.4,0000.0,0000.76,0000.29,0000.23
2021-12-22 16:24:00,,0822.4,5.00,0.00,25.0,24.3,00.0,33.8,26.9,04.3,0000.0,0000.79,0000.31,0000.24
2021-12-22 16:25:00,,0822.3,5.00,0.00,25.1,24.3,00.0,33.8,26.9,04.3,0000.0,0000.79,0000.31,0000.25
2021-12-22 16:26:00,,0822.2,5.00,0.00,25.1,24.3,00.0,33.8,26.9,04.3,0000.0,0000.79,0000.31,0000.25
2021-12-22 16:27:00,,0822.3,5.02,0.00,25.1,24.3,00.0,33.9,26.9,04.6,0000.0,0001.12,0000.35,0000.25
2021-12-22 16:28:00,,0822.2,4.99,0.00,25.1,24.4,00.0,33.9,26.9,04.8,0000.0,0001.43,0000.40,0000.25
2021-12-22 16:29:00,,0822.3,5.00,0.00,25.1,24.4,00.0,33.9,26.9,04.9,0000.0,0001.40,0000.41,0000.25
2021-12-22 16:30:00,,0822.4,5.01,0.00,25.1,24.4,00.0,33.9,27.0,04.8,0000.0,0001.23,0000.40,0000.25
2021-12-22 16:31:00,,0822.3,5.00,0.00,25.1,24.4,00.0,34.0,27.0,04.7,0000.0,0001.15,0000.39,0000.25
2021-12-22 16:32:00,,0822.4,5.01,0.00,25.2,24.4,00.0,34.0,27.0,04.8,0000.0,0001.13,0000.39,0000.25
2021-12-22 16:33:00,,0822.4,4.98,0.00,25.2,24.5,00.0,34.0,27.0,04.9,0000.0,0001.77,0000.38,0000.25
2021-12-22 16:34:00,,0822.3,5.01,0.00,25.2,24.5,00.0,34.0,27.1,04.6,0000.0,0002.38,0000.39,0000.25
2021-12-22 16:35:00,,0822.3,5.00,0.00,25.2,24.5,00.0,34.0,27.1,04.7,0000.0,0002.40,0000.39,0000.24
2021-12-22 16:36:00,,0822.4,4.99,0.00,25.2,24.5,00.0,34.1,27.1,04.8,0000.0,0002.44,0000.40,0000.24
2021-12-22 16:37:00,,0822.4,5.01,0.00,25.3,24.6,00.0,34.1,27.1,04.8,0000.0,0002.51,0000.43,0000.24
2021-12-22 16:38:00,,0822.4,4.99,0.00,25.3,24.6,00.0,34.1,27.1,04.8,0000.0,0002.24,0000.41,0000.24
2021-12-22 16:39:00,,0822.4,5.01,0.00,25.3,24.6,00.0,34.1,27.2,04.8,0000.0,0001.99,0000.37,0000.24
2021-12-22 16:40:00,,0822.4,5.01,0.00,25.3,24.6,00.0,34.1,27.2,04.8,0000.0,0001.92,0000.36,0000.24
2021-12-22 16:41:00,,0822.4,5.00,0.00,25.3,24.7,00.0,34.2,27.2,04.7,0000.0,0001.99,0000.37,0000.24
2021-12-22 16:42:00,,0822.4,5.01,0.00,25.4,24.7,00.0,34.2,27.2,04.7,0000.0,0002.57,0000.40,0000.24
2021-12-22 16:43:00,,0822.3,4.99,0.00,25.4,24.7,00.0,34.2,27.2,04.5,0000.0,0002.91,0000.43,0000.24
2021-12-22 16:44:00,,0822.3,5.00,0.00,25.4,24.7,00.0,34.2,27.3,04.8,0000.0,0002.21,0000.44,0000.24
2021-12-22 16:45:00,,0822.4,5.00,0.00,25.4,24.7,00.0,34.2,27.2,04.4,0000.0,0002.26,0000.43,0000.24
2021-12-22 16:46:00,,0822.4,5.00,0.00,25.4,24.8,00.0,34.3,27.3,04.0,0000.0,0003.25,0000.46,0000.25
2021-12-22 16:47:00,,0822.4,5.00,0.00,25.4,24.8,00.0,34.3,27.3,03.7,0000.0,0003.33,0000.46,0000.25
2021-12-22 16:48:00,,0822.4,4.99,0.00,25.4,24.8,00.0,34.3,27.3,03.7,0000.0,0003.29,0000.45,0000.26
2021-12-22 16:49:00,,0822.4,5.01,0.00,25.5,24.8,00.0,34.3,27.3,03.6,0000.0,0003.24,0000.46,0000.27
2021-12-22 16:50:00,,0822.3,5.00,0.00,25.5,24.8,00.0,34.3,27.4,03.5,0000.0,0003.24,0000.47,0000.28
2021-12-22 16:51:00,,0822.3,4.99,0.00,25.5,24.8,00.0,34.3,27.4,03.6,0000.0,0003.98,0000.50,0000.28
2021-12-22 16:52:00,,0822.2,5.00,0.00,25.5,24.9,00.0,34.4,27.4,04.0,0000.0,0004.00,0000.49,0000.28
2021-12-22 16:53:00,,0822.1,5.01,0.00,25.6,24.9,00.0,34.4,27.5,04.6,0000.0,0003.46,0000.49,0000.30
2021-12-22 16:54:00,,0822.2,5.00,0.00,25.6,24.9,00.0,34.4,27.5,04.8,0000.0,0003.41,0000.55,0000.31
2021-12-22 16:55:00,,0822.2,4.99,0.00,25.6,24.9,00.0,34.4,27.5,04.9,0000.0,0003.62,0000.60,0000.32
2021-12-22 16:56:00,,0822.3,5.02,0.00,25.6,24.9,00.0,34.4,27.5,04.9,0000.0,0003.77,0000.64,0000.34
2021-12-22 16:57:00,,0822.4,4.99,0.00,25.6,24.9,00.0,34.5,27.5,04.9,0000.0,0003.42,0000.67,0000.35
2021-12-22 16:58:00,,0822.4,5.01,0.00,25.6,24.9,00.0,34.5,27.5,04.8,0000.0,0004.80,0000.74,0000.37
2021-12-22 16:59:00,,0822.4,4.99,0.00,25.6,24.9,00.0,34.5,27.5,04.9,0000.0,0005.35,0000.78,0000.39
